Weather in Tianjin

China     39˚07′24″N   117˚11′52″E
temp.,
°C
wind,
m/s
gust,
m/s
humid.,
%
clouds,
%
prec.,
mm/h
press.,
hPa
HPBL,
m
1 december, tue
tue123:00+1˚nw1230100 0.0 1041121
02:00n123284 0.0 103989
05:00−1˚nne2333100 0.0 1038120
08:00−1˚n123376 0.0 103995
11:00+2˚n1128100 0.0 1040420
14:00+3˚nne0126100 0.0 1036735
17:00+2˚n113073 0.0 1036435
20:00+2˚n223387 0.0 1036213
2 december, wed
wed223:00+1˚n1135100 0.0 1036158
02:00+1˚n1238100 0.0 1035187
05:00+1˚nnw2236100 0.0 1035208
08:00+1˚nw2429100 0.0 1035307
11:00+2˚nw3427100 0.0 1037634
14:00+4˚nnw4623100 0.0 10351255
17:00+2˚nnw4726100 0.0 1035768
20:00+1˚nnw5102967 0.0 1036734
3 december, thu
thu323:00nnw511290 0.0 1037680
02:00−1˚nnw611310 0.0 1037561
05:00−2˚nnw49330 0.0 1038440
08:00−2˚nnw511290 0.0 1039586
11:00+2˚nnw69220 0.0 1039983
14:00+3˚nw58200 0.0 10371346
17:00+2˚nnw35240 0.0 1037703
20:00n25270 0.0 1037251
4 december, fri
fri423:00−1˚nw25310 0.0 1037231
02:00−2˚wnw25320 0.0 1036295
05:00−2˚wnw26340 0.0 1035408
08:00−2˚nw49310 0.0 1036514
11:00+1˚nw58230 0.0 1035913
14:00+3˚wnw46220 0.0 10321484
17:00+1˚w34310 0.0 1032615
20:00wsw23340 0.0 1032109
5 december, sat
sat523:00−1˚w23340 0.0 1032108
02:00−2˚wsw23390 0.0 1031118
05:00−2˚wnw12420 0.0 1031106
08:00−2˚nw12360 0.0 1032149
11:00+1˚wnw12260 0.0 1032446
14:00+3˚w22240 0.0 1029752
17:00+2˚w11280 0.0 102952
20:00+1˚nw11310 0.0 103021